"startDT [UTC]","vpos","CH4 [ppm]","stdev(CH4) [ppm]","CO2 [ppm]","stdev(CO2) [ppm]","H2O_reported [%]","stdev(H2O_reported)","CavityPressure [torr]","CavityTemp [C]","OutletValve","CH4_dry [ppm]","CO2_dry [ppm]","DasTemp [C]","EtalonTemp [C]","WarmBoxTemp [C]","MPVPosition","T_ECpre [C]","T_EC1 [C]","T_EC2 [C]","p_inlet [hPa]","p_in [hPa]","p_out [hPa]","T_inlet [C]","RH_inlet [%]","dwpt_inlet [C]","T_vent [C]","RH_vent [%]","dwpt_vent [C]","flow_vent [l min-1]","flow_inlet [l min-1]","dwpt_sample [C]","T_room [C]"
2015-01-21 00:00:00,0.0,1.95589,0.00071,407.604,0.052,0.0727,0.0014,140.000,45.000,28630.65489,1.95739,407.960,33.240,45.068,45.000,0.00,0.09,-272.69,-272.75,-9,139,-2,20.4,2.4,-28.5,20.6,3.7,-23.8,5.73,2.39,-18.8,26.0
2015-01-21 00:01:00,0.0,1.95185,0.00160,407.155,0.224,0.0730,0.0015,139.999,45.000,28626.70444,1.95340,407.520,33.251,45.067,45.000,0.00,0.09,-272.69,-272.74,-9,139,-2,20.4,2.4,-28.4,20.6,3.7,-23.8,5.73,2.37,-18.8,26.0
2015-01-21 00:02:00,0.0,1.95224,0.00070,407.162,0.077,0.0743,0.0014,139.998,45.000,28624.62559,1.95361,407.526,33.271,45.067,45.000,0.00,0.09,-272.69,-272.75,-9,139,-2,20.5,2.5,-28.2,20.6,3.7,-23.8,5.73,2.35,-18.8,26.0
2015-01-21 00:03:00,0.0,1.95184,0.00055,407.020,0.061,0.0755,0.0012,140.003,45.000,28638.01629,1.95328,407.389,33.281,45.067,45.000,0.00,0.09,-272.69,-272.76,-10,140,-2,20.5,2.5,-28.1,20.6,3.7,-23.8,5.73,2.35,-18.8,26.1
2015-01-21 00:04:00,0.0,1.95240,0.00036,407.108,0.031,0.0753,0.0021,139.999,45.000,28643.78297,1.95385,407.477,33.285,45.067,45.000,0.00,0.09,-272.68,-272.74,-10,141,-2,20.4,2.5,-28.0,20.6,3.7,-23.7,5.73,2.42,-18.8,26.1
2015-01-21 00:05:00,0.0,1.95252,0.00059,407.119,0.039,0.0759,0.0017,140.001,45.000,28651.26193,1.95391,407.488,33.293,45.067,45.000,0.00,0.09,-272.68,-272.74,-10,141,-2,20.4,2.5,-28.0,20.6,3.7,-23.8,5.73,2.43,-18.8,26.1
2015-01-21 00:06:00,0.0,1.95627,0.00097,407.332,0.044,0.0743,0.0024,140.001,45.000,28659.73767,1.95765,407.695,33.305,45.067,45.000,0.00,0.09,-272.69,-272.75,-9,143,-2,20.4,2.5,-28.1,20.6,3.7,-23.8,5.73,2.45,-18.8,26.0
2015-01-21 00:07:00,0.0,1.95211,0.00093,407.088,0.063,0.0741,0.0013,140.002,45.000,28668.49153,1.95367,407.454,33.258,45.068,45.000,0.00,0.09,-272.69,-272.74,-9,143,-2,20.3,2.5,-28.2,20.5,3.7,-23.8,5.73,2.45,-18.8,26.0
2015-01-21 00:08:00,0.0,1.95251,0.00140,407.092,0.093,0.0750,0.0017,139.999,45.000,28670.90772,1.95381,407.455,33.229,45.068,45.000,0.00,0.09,-272.68,-272.74,-9,144,-2,20.3,2.5,-28.1,20.5,3.7,-23.8,5.73,2.46,-18.8,26.0
2015-01-21 00:09:00,0.0,1.95428,0.00146,407.232,0.074,0.0732,0.0015,139.998,45.000,28673.01669,1.95582,407.593,33.181,45.068,45.000,0.00,0.09,-272.69,-272.75,-9,144,-2,20.2,2.5,-28.3,20.5,3.7,-23.9,5.73,2.43,-18.8,26.0
2015-01-21 00:10:00,0.0,1.95119,0.00107,406.998,0.108,0.0734,0.0017,139.999,45.000,28675.13308,1.95275,407.366,33.135,45.068,45.001,0.00,0.09,-272.69,-272.75,-9,144,-2,20.2,2.5,-28.3,20.4,3.7,-23.9,5.73,2.37,-18.8,25.9
2015-01-21 00:11:00,0.0,1.95033,0.00082,406.851,0.129,0.0751,0.0013,139.998,45.000,28673.43681,1.95174,407.217,33.124,45.068,45.001,0.00,0.09,-272.69,-272.74,-10,144,-2,20.1,2.5,-28.2,20.4,3.7,-23.9,5.73,2.35,-18.8,25.9
2015-01-21 00:12:00,0.0,1.94893,0.00037,406.634,0.071,0.0764,0.0029,139.998,45.000,28666.06817,1.95041,407.010,33.114,45.068,45.001,0.00,0.09,-272.68,-272.75,-9,143,-2,20.1,2.6,-28.0,20.4,3.7,-23.9,5.73,2.33,-18.8,25.9
2015-01-21 00:13:00,0.0,1.94897,0.00047,406.578,0.028,0.0784,0.0014,140.000,45.000,28660.92012,1.95047,406.961,33.080,45.068,45.001,0.00,0.09,-272.69,-272.75,-9,143,-2,20.2,2.7,-27.7,20.4,3.7,-23.9,5.73,2.35,-18.8,25.9
2015-01-21 00:14:00,0.0,1.94952,0.00041,406.642,0.057,0.0799,0.0016,139.998,45.000,28661.50430,1.95101,407.031,33.063,45.068,45.001,0.00,0.09,-272.68,-272.74,-9,143,-2,20.2,2.7,-27.5,20.4,3.7,-23.9,5.73,2.35,-18.8,25.8
2015-01-21 00:15:00,0.0,1.94972,0.00035,406.657,0.038,0.0792,0.0017,139.997,45.000,28653.67449,1.95125,407.044,33.063,45.068,45.000,0.00,0.09,-272.68,-272.75,-9,142,-2,20.2,2.7,-27.5,20.4,3.7,-23.9,5.73,2.37,-18.8,25.8
2015-01-21 00:16:00,0.0,1.94857,0.00025,406.534,0.056,0.0802,0.0008,139.997,45.000,28645.64741,1.95016,406.928,33.081,45.068,45.000,0.00,0.09,-272.68,-272.75,-9,141,-2,20.2,2.7,-27.5,20.4,3.7,-23.9,5.73,2.39,-18.8,25.9
2015-01-21 00:17:00,0.0,1.94983,0.00056,406.621,0.050,0.0804,0.0019,140.000,45.000,28645.07868,1.95133,407.013,33.075,45.068,45.000,0.00,0.09,-272.69,-272.75,-10,141,-2,20.2,2.7,-27.5,20.4,3.7,-23.9,5.73,2.42,-18.8,25.9
2015-01-21 00:18:00,0.0,1.95036,0.00040,406.687,0.040,0.0801,0.0017,140.002,45.000,28651.81752,1.95187,407.078,33.084,45.068,45.000,0.00,0.09,-272.68,-272.74,-10,142,-2,20.2,2.7,-27.5,20.4,3.7,-23.9,5.73,2.42,-18.8,25.8
2015-01-21 00:19:00,0.0,1.95092,0.00053,406.718,0.027,0.0793,0.0020,140.002,45.000,28652.20051,1.95240,407.105,33.124,45.067,45.000,0.00,0.09,-272.69,-272.74,-10,141,-2,20.2,2.7,-27.6,20.4,3.7,-23.9,5.73,2.42,-18.8,25.9
2015-01-21 00:20:00,0.0,1.94998,0.00073,406.655,0.070,0.0791,0.0021,140.002,45.000,28655.27326,1.95161,407.045,33.126,45.067,44.999,0.00,0.09,-272.69,-272.75,-9,142,-2,20.2,2.7,-27.6,20.4,3.7,-23.9,5.73,2.42,-18.8,25.9
2015-01-21 00:21:00,0.0,1.94790,0.00050,406.430,0.049,0.0799,0.0014,139.998,45.000,28653.17300,1.94944,406.823,33.147,45.067,44.999,0.00,0.09,-272.68,-272.74,-9,142,-2,20.2,2.7,-27.5,20.4,3.7,-23.9,5.73,2.40,-18.8,25.8
2015-01-21 00:22:00,0.0,1.94755,0.00042,406.393,0.027,0.0815,0.0015,140.001,45.000,28649.72412,1.94913,406.792,33.149,45.067,44.999,0.00,0.09,-272.68,-272.74,-9,142,-2,20.2,2.7,-27.3,20.4,3.7,-23.9,5.73,2.38,-18.8,25.8
2015-01-21 00:23:00,0.0,1.94631,0.00095,406.258,0.116,0.0819,0.0018,139.999,45.000,28645.81038,1.94799,406.664,33.157,45.067,44.999,0.00,0.09,-272.69,-272.75,-9,141,-2,20.2,2.8,-27.2,20.5,3.7,-23.9,5.73,2.37,-18.9,25.8
2015-01-21 00:24:00,0.0,1.94426,0.00061,406.020,0.074,0.0853,0.0013,139.999,45.000,28641.23885,1.94589,406.435,33.188,45.067,44.999,0.00,0.09,-272.69,-272.75,-9,140,-2,20.3,2.9,-26.9,20.5,3.7,-23.9,5.73,2.36,-18.8,25.8
2015-01-21 00:25:00,0.0,1.94537,0.00063,406.159,0.054,0.0861,0.0015,139.999,45.000,28638.46045,1.94696,406.577,33.197,45.067,44.999,0.00,0.09,-272.68,-272.74,-10,140,-2,20.3,2.9,-26.7,20.5,3.7,-23.9,5.73,2.35,-18.8,25.9
2015-01-21 00:26:00,0.0,1.94690,0.00028,406.305,0.033,0.0857,0.0015,139.998,45.000,28633.27539,1.94854,406.725,33.216,45.067,45.000,0.00,0.09,-272.69,-272.76,-10,140,-2,20.3,2.9,-26.7,20.5,3.7,-23.8,5.73,2.34,-18.8,25.9
2015-01-21 00:27:00,0.0,1.94665,0.00053,406.280,0.052,0.0847,0.0015,140.001,45.000,28635.28696,1.94830,406.696,33.247,45.067,44.999,0.00,0.09,-272.69,-272.75,-10,140,-2,20.4,2.9,-26.7,20.5,3.7,-23.8,5.73,2.36,-18.8,25.9
2015-01-21 00:28:00,0.0,1.94528,0.00102,406.058,0.184,0.0862,0.0015,140.000,45.000,28645.90274,1.94698,406.485,33.250,45.067,44.999,0.00,0.09,-272.68,-272.74,-9,141,-2,20.4,2.9,-26.6,20.5,3.7,-23.8,5.73,2.39,-18.8,25.9
2015-01-21 00:29:00,0.0,1.94403,0.00029,405.789,0.044,0.0902,0.0017,140.000,45.000,28647.53369,1.94579,406.230,33.249,45.067,45.000,0.00,0.09,-272.69,-272.74,-9,142,-2,20.4,3.0,-26.2,20.5,3.7,-23.8,5.73,2.39,-18.8,25.9
2015-01-21 00:30:00,0.0,1.94413,0.00035,405.809,0.037,0.0926,0.0023,139.999,45.000,28650.81901,1.94590,406.260,33.250,45.067,45.000,0.00,0.09,-272.69,-272.75,-9,142,-2,20.3,3.1,-25.9,20.5,3.7,-23.8,5.73,2.40,-18.8,25.9
2015-01-21 00:31:00,0.0,1.94386,0.00036,405.783,0.034,0.0940,0.0021,139.996,45.000,28650.46651,1.94567,406.243,33.250,45.068,45.000,0.00,0.09,-272.69,-272.74,-9,142,-2,20.3,3.2,-25.7,20.5,3.7,-23.8,5.73,2.43,-18.8,25.9
2015-01-21 00:32:00,0.0,1.94407,0.00025,405.816,0.023,0.0949,0.0019,140.001,45.000,28643.99913,1.94588,406.279,33.243,45.068,45.000,0.00,0.09,-272.69,-272.74,-10,141,-2,20.3,3.2,-25.6,20.5,3.7,-23.8,5.73,2.45,-18.8,25.9
2015-01-21 00:33:00,0.0,1.94402,0.00033,405.843,0.031,0.0959,0.0014,140.000,45.000,28640.55346,1.94585,406.312,33.249,45.068,45.000,0.00,0.09,-272.69,-272.75,-10,140,-2,20.3,3.2,-25.6,20.5,3.7,-23.8,5.73,2.44,-18.9,25.9
2015-01-21 00:34:00,0.0,1.94401,0.00047,405.859,0.037,0.0968,0.0018,139.998,45.000,28650.41617,1.94587,406.330,33.250,45.068,45.000,0.00,0.09,-272.69,-272.74,-10,142,-2,20.4,3.2,-25.5,20.5,3.7,-23.8,5.73,2.41,-18.8,25.9
2015-01-21 00:35:00,0.0,1.94432,0.00029,405.897,0.027,0.0962,0.0016,140.000,45.000,28659.35805,1.94613,406.367,33.250,45.068,45.000,0.00,0.09,-272.68,-272.73,-9,143,-2,20.3,3.2,-25.6,20.5,3.7,-23.8,5.73,2.39,-18.8,25.9
2015-01-21 00:36:00,0.0,1.94431,0.00038,405.920,0.028,0.0959,0.0014,140.001,45.000,28668.50115,1.94615,406.388,33.245,45.068,45.000,0.00,0.09,-272.69,-272.74,-9,144,-2,20.3,3.2,-25.6,20.5,3.7,-23.8,5.73,2.37,-18.8,25.9
2015-01-21 00:37:00,0.0,1.94469,0.00034,405.951,0.022,0.0964,0.0021,139.998,45.000,28674.75803,1.94656,406.422,33.223,45.068,45.000,0.00,0.09,-272.69,-272.75,-9,145,-2,20.2,3.2,-25.6,20.5,3.7,-23.8,5.73,2.37,-18.8,25.9
2015-01-21 00:38:00,0.0,1.94445,0.00033,405.956,0.038,0.0953,0.0021,139.997,45.000,28677.70033,1.94628,406.422,33.190,45.068,45.000,0.00,0.09,-272.68,-272.74,-9,145,-2,20.2,3.2,-25.7,20.4,3.7,-23.8,5.73,2.36,-18.8,25.9
2015-01-21 00:39:00,0.0,1.94469,0.00035,405.975,0.028,0.0963,0.0014,139.999,45.000,28678.74672,1.94652,406.444,33.190,45.068,45.000,0.00,0.09,-272.69,-272.74,-9,146,-2,20.2,3.2,-25.7,20.4,3.7,-23.9,5.73,2.34,-18.8,25.9
2015-01-21 00:40:00,0.0,1.94469,0.00037,405.997,0.033,0.0953,0.0017,139.999,45.000,28679.88500,1.94652,406.463,33.186,45.068,45.000,0.00,0.09,-272.69,-272.75,-9,145,-2,20.1,3.2,-25.7,20.3,3.7,-23.9,5.73,2.35,-18.8,25.8
2015-01-21 00:41:00,0.0,1.94469,0.00037,405.992,0.027,0.0954,0.0019,139.998,45.000,28666.99023,1.94650,406.458,33.178,45.068,45.000,0.00,0.09,-272.68,-272.74,-10,144,-2,20.1,3.2,-25.7,20.3,3.7,-23.9,5.73,2.35,-18.8,25.8
2015-01-21 00:42:00,0.0,1.94487,0.00038,406.012,0.031,0.0950,0.0017,140.002,45.000,28661.46697,1.94668,406.475,33.171,45.068,45.000,0.00,0.09,-272.69,-272.74,-9,142,-2,20.2,3.2,-25.7,20.4,3.7,-23.8,5.73,2.36,-18.8,25.8
2015-01-21 00:43:00,0.0,1.94507,0.00035,406.047,0.034,0.0956,0.0018,139.997,45.000,28658.59807,1.94692,406.514,33.181,45.068,45.000,0.00,0.09,-272.69,-272.74,-9,143,-2,20.2,3.2,-25.6,20.4,3.7,-23.8,5.73,2.38,-18.8,25.8
2015-01-21 00:44:00,0.0,1.94497,0.00034,406.074,0.033,0.0945,0.0016,140.000,45.000,28653.56768,1.94677,406.536,33.187,45.068,45.000,0.00,0.09,-272.69,-272.74,-9,142,-2,20.3,3.2,-25.7,20.4,3.7,-23.8,5.73,2.38,-18.8,25.9
2015-01-21 00:45:00,0.0,1.94525,0.00050,406.077,0.027,0.0951,0.0020,139.997,45.000,28654.97327,1.94703,406.541,33.200,45.068,45.000,0.00,0.09,-272.68,-272.75,-9,142,-2,20.3,3.2,-25.7,20.5,3.7,-23.8,5.73,2.42,-18.8,25.9
2015-01-21 00:46:00,0.0,1.94530,0.00044,406.076,0.059,0.0951,0.0017,140.000,45.000,28653.13444,1.94713,406.541,33.218,45.068,45.000,0.00,0.09,-272.69,-272.75,-9,142,-2,20.3,3.1,-25.8,20.5,3.7,-23.8,5.73,2.42,-18.8,25.9
2015-01-21 00:47:00,0.0,1.94540,0.00039,406.125,0.045,0.0940,0.0014,140.001,45.000,28645.82228,1.94722,406.585,33.244,45.068,45.000,0.00,0.09,-272.68,-272.75,-9,141,-2,20.3,3.1,-25.8,20.5,3.7,-23.8,5.73,2.44,-18.8,25.9
2015-01-21 00:48:00,0.0,1.94582,0.00035,406.114,0.036,0.0939,0.0017,140.001,45.000,28649.79075,1.94760,406.572,33.246,45.067,45.000,0.00,0.09,-272.69,-272.74,-9,142,-2,20.3,3.1,-25.9,20.5,3.7,-23.7,5.73,2.46,-18.8,25.9
2015-01-21 00:49:00,0.0,1.94545,0.00043,406.104,0.040,0.0941,0.0024,140.000,45.000,28660.45798,1.94726,406.565,33.247,45.068,45.000,0.00,0.09,-272.68,-272.74,-10,143,-2,20.3,3.1,-25.8,20.5,3.7,-23.8,5.73,2.43,-18.8,25.9
2015-01-21 00:50:00,0.0,1.94561,0.00028,406.091,0.031,0.0928,0.0016,139.999,45.000,28665.70880,1.94740,406.546,33.250,45.068,45.000,0.00,0.09,-272.69,-272.75,-10,144,-2,20.3,3.1,-25.8,20.5,3.7,-23.8,5.73,2.41,-18.8,25.9
2015-01-21 00:51:00,0.0,1.94541,0.00035,406.036,0.024,0.0930,0.0018,139.999,45.000,28667.75109,1.94717,406.492,33.250,45.068,45.000,0.00,0.09,-272.69,-272.75,-10,143,-2,20.3,3.1,-25.9,20.5,3.7,-23.8,5.73,2.41,-18.8,25.9
2015-01-21 00:52:00,0.0,1.94575,0.00039,406.038,0.040,0.0929,0.0018,139.998,45.000,28668.44947,1.94753,406.492,33.250,45.068,45.000,0.00,0.09,-272.69,-272.75,-9,144,-2,20.3,3.1,-26.0,20.5,3.7,-23.8,5.73,2.39,-18.8,25.9
2015-01-21 00:53:00,0.0,1.94578,0.00037,406.032,0.033,0.0927,0.0020,139.999,45.000,28670.62144,1.94756,406.485,33.222,45.068,45.000,0.00,0.09,-272.69,-272.74,-9,144,-2,20.2,3.1,-26.0,20.4,3.7,-23.8,5.73,2.38,-18.8,25.9
2015-01-21 00:54:00,0.0,1.94534,0.00037,405.995,0.041,0.0929,0.0019,140.000,45.000,28671.45314,1.94714,406.451,33.189,45.068,45.000,0.00,0.09,-272.69,-272.74,-9,144,-2,20.2,3.1,-26.0,20.4,3.7,-23.8,5.73,2.36,-18.8,25.9
2015-01-21 00:55:00,0.0,1.94490,0.00033,405.973,0.040,0.0927,0.0018,140.000,45.000,28670.80030,1.94668,406.426,33.178,45.068,45.000,0.00,0.09,-272.68,-272.74,-9,144,-2,20.2,3.1,-26.0,20.4,3.7,-23.8,5.73,2.35,-18.8,25.8
2015-01-21 00:56:00,0.0,1.94493,0.00037,405.941,0.027,0.0939,0.0018,140.000,45.000,28676.51365,1.94674,406.399,33.165,45.068,45.000,0.00,0.09,-272.69,-272.75,-9,144,-2,20.2,3.1,-25.8,20.4,3.7,-23.8,5.73,2.35,-18.8,25.9
2015-01-21 00:57:00,0.0,1.94483,0.00032,405.931,0.040,0.0945,0.0017,140.000,45.000,28680.57661,1.94665,406.394,33.131,45.068,45.000,0.00,0.09,-272.69,-272.75,-9,146,-2,20.2,3.2,-25.8,20.4,3.7,-23.8,5.73,2.34,-18.8,25.9
2015-01-21 00:58:00,0.0,1.94478,0.00042,405.894,0.029,0.0946,0.0019,139.998,45.000,28682.71721,1.94656,406.355,33.125,45.068,45.001,0.00,0.09,-272.68,-272.75,-9,146,-2,20.1,3.2,-25.8,20.3,3.7,-23.9,5.73,2.35,-18.8,25.8
2015-01-21 00:59:00,0.0,1.94481,0.00041,405.909,0.028,0.0951,0.0016,140.001,45.000,28685.82181,1.94661,406.373,33.106,45.068,45.001,0.00,0.09,-272.69,-272.74,-9,146,-1,20.1,3.2,-25.7,20.3,3.7,-23.9,5.73,2.35,-18.8,25.8
2015-01-21 01:00:00,0.0,1.94469,0.00042,405.943,0.028,0.0952,0.0017,139.998,45.000,28682.43111,1.94655,406.408,33.110,45.068,45.001,0.00,0.09,-272.69,-272.75,-9,146,-1,20.1,3.2,-25.7,20.3,3.7,-23.9,5.73,2.36,-18.8,25.8
2015-01-21 01:01:00,0.0,1.94489,0.00037,405.933,0.032,0.0948,0.0018,139.998,45.000,28668.32749,1.94672,406.397,33.125,45.068,45.000,0.00,0.09,-272.68,-272.75,-9,144,-1,20.1,3.2,-25.7,20.3,3.7,-23.8,5.73,2.38,-18.8,25.8
2015-01-21 01:02:00,0.0,1.94448,0.00029,405.905,0.038,0.0946,0.0017,139.998,45.000,28659.22741,1.94630,406.366,33.125,45.068,45.000,0.00,0.09,-272.68,-272.75,-9,143,-1,20.1,3.2,-25.7,20.3,3.7,-23.8,5.73,2.39,-18.8,25.8
2015-01-21 01:03:00,0.0,1.94446,0.00035,405.874,0.029,0.0950,0.0017,139.996,45.000,28650.09190,1.94626,406.340,33.133,45.068,45.000,0.00,0.09,-272.69,-272.75,-9,141,-1,20.2,3.2,-25.7,20.4,3.7,-23.8,5.73,2.40,-18.8,25.8
2015-01-21 01:04:00,0.0,1.94461,0.00040,405.906,0.028,0.0950,0.0017,139.999,45.000,28648.15514,1.94643,406.368,33.170,45.067,45.000,0.00,0.09,-272.69,-272.75,-9,141,-1,20.2,3.2,-25.7,20.4,3.7,-23.8,5.73,2.41,-18.8,25.8
2015-01-21 01:05:00,0.0,1.94482,0.00037,405.925,0.033,0.0949,0.0017,140.000,45.000,28649.05047,1.94661,406.388,33.184,45.067,44.999,0.00,0.09,-272.68,-272.75,-9,142,-2,20.3,3.2,-25.7,20.4,3.7,-23.8,5.73,2.44,-18.8,25.9
2015-01-21 01:06:00,0.0,1.94504,0.00038,405.929,0.028,0.0936,0.0017,139.997,45.000,28645.12669,1.94684,406.388,33.187,45.067,44.999,0.00,0.09,-272.69,-272.74,-9,141,-2,20.3,3.1,-25.8,20.5,3.7,-23.8,5.73,2.41,-18.8,25.9
2015-01-21 01:07:00,0.0,1.94493,0.00035,405.897,0.029,0.0948,0.0012,139.999,45.000,28640.32221,1.94675,406.360,33.200,45.067,45.000,0.00,0.09,-272.69,-272.75,-10,141,-1,20.3,3.1,-25.8,20.5,3.7,-23.8,5.73,2.44,-18.8,25.9
2015-01-21 01:08:00,0.0,1.94494,0.00030,405.854,0.024,0.0948,0.0019,139.998,45.000,28643.87445,1.94677,406.318,33.191,45.067,45.000,0.00,0.09,-272.69,-272.74,-10,142,-2,20.3,3.2,-25.7,20.5,3.7,-23.7,5.73,2.43,-18.8,25.9
2015-01-21 01:09:00,0.0,1.94458,0.00047,405.834,0.026,0.0954,0.0017,140.001,45.000,28658.19323,1.94639,406.301,33.207,45.067,45.000,0.00,0.09,-272.68,-272.73,-10,142,-2,20.4,3.2,-25.6,20.5,3.7,-23.7,5.73,2.41,-18.8,26.0
2015-01-21 01:10:00,0.0,1.94429,0.00038,405.802,0.028,0.0963,0.0020,140.000,45.000,28658.27218,1.94618,406.274,33.207,45.067,45.000,0.00,0.09,-272.70,-272.74,-9,143,-1,20.3,3.2,-25.5,20.5,3.8,-23.7,5.73,2.40,-18.8,25.9
2015-01-21 01:11:00,0.0,1.94382,0.00040,405.740,0.029,0.0971,0.0016,139.999,45.000,28654.74366,1.94569,406.216,33.235,45.068,45.000,0.00,0.09,-272.69,-272.75,-9,142,-1,20.3,3.2,-25.5,20.5,3.8,-23.7,5.73,2.38,-18.8,25.9
2015-01-21 01:12:00,0.0,1.94362,0.00036,405.726,0.033,0.0980,0.0020,139.999,45.000,28664.85699,1.94550,406.204,33.248,45.068,45.000,0.00,0.09,-272.69,-272.74,-9,143,-2,20.3,3.2,-25.4,20.5,3.8,-23.7,5.73,2.39,-18.8,25.9
2015-01-21 01:13:00,0.0,1.94377,0.00031,405.688,0.039,0.0977,0.0015,139.999,45.000,28668.59484,1.94563,406.165,33.250,45.068,45.000,0.00,0.09,-272.69,-272.75,-9,144,-2,20.3,3.3,-25.4,20.5,3.8,-23.7,5.73,2.36,-18.8,25.9
2015-01-21 01:14:00,0.0,1.94384,0.00048,405.665,0.042,0.0985,0.0015,139.998,45.000,28675.84874,1.94573,406.148,33.236,45.068,45.000,0.00,0.09,-272.70,-272.75,-9,145,-1,20.3,3.3,-25.3,20.4,3.8,-23.7,5.73,2.36,-18.8,25.9
2015-01-21 01:15:00,0.0,1.94318,0.00064,405.592,0.061,0.0986,0.0019,140.001,45.000,28674.63742,1.94511,406.075,33.222,45.068,45.000,0.00,0.09,-272.69,-272.73,-9,145,-1,20.2,3.3,-25.3,20.4,3.8,-23.7,5.73,2.37,-18.8,25.9
2015-01-21 01:16:00,0.0,1.94267,0.00041,405.524,0.043,0.0984,0.0026,140.001,45.000,28676.52945,1.94454,406.004,33.215,45.068,45.000,0.00,0.09,-272.69,-272.74,-9,145,-1,20.2,3.3,-25.4,20.4,3.8,-23.7,5.73,2.37,-18.8,25.9
2015-01-21 01:17:00,0.0,1.94304,0.00040,405.545,0.030,0.0976,0.0013,140.000,45.000,28672.36480,1.94490,406.022,33.210,45.068,45.000,0.00,0.09,-272.69,-272.75,-9,144,-1,20.2,3.3,-25.4,20.4,3.8,-23.7,5.73,2.39,-18.8,25.8
2015-01-21 01:18:00,0.0,1.94209,0.00051,405.501,0.039,0.0984,0.0018,139.997,45.000,28661.87875,1.94402,405.982,33.217,45.068,45.000,0.00,0.09,-272.68,-272.75,-9,143,-1,20.2,3.3,-25.3,20.4,3.8,-23.7,5.73,2.36,-18.8,25.8
2015-01-21 01:19:00,0.0,1.94165,0.00029,405.434,0.035,0.1013,0.0014,139.997,45.000,28656.13762,1.94360,405.930,33.195,45.068,45.000,0.00,0.09,-272.68,-272.75,-9,142,-1,20.2,3.4,-25.1,20.4,3.8,-23.7,5.73,2.39,-18.8,25.9
2015-01-21 01:20:00,0.0,1.94193,0.00043,405.440,0.027,0.1019,0.0012,139.999,45.000,28664.04945,1.94386,405.938,33.190,45.068,45.000,0.00,0.09,-272.68,-272.75,-9,143,-1,20.3,3.4,-25.0,20.4,3.8,-23.7,5.73,2.38,-18.8,25.9
2015-01-21 01:21:00,0.0,1.94142,0.00045,405.409,0.030,0.1030,0.0017,139.998,45.000,28662.53545,1.94342,405.913,33.187,45.068,45.000,0.00,0.09,-272.69,-272.75,-9,144,-1,20.2,3.4,-24.9,20.4,3.8,-23.7,5.73,2.38,-18.8,25.9
2015-01-21 01:22:00,0.0,1.94073,0.00030,405.357,0.021,0.1039,0.0017,140.000,45.000,28654.64523,1.94272,405.864,33.187,45.068,45.000,0.00,0.09,-272.68,-272.75,-9,142,-1,20.3,3.5,-24.7,20.4,3.8,-23.7,5.73,2.38,-18.8,25.9
2015-01-21 01:23:00,0.0,1.94037,0.00048,405.315,0.044,0.1058,0.0016,139.999,45.000,28662.06747,1.94243,405.833,33.187,45.068,45.000,0.00,0.09,-272.69,-272.75,-9,143,-2,20.3,3.5,-24.6,20.5,3.8,-23.7,5.73,2.38,-18.8,25.9
2015-01-21 01:24:00,0.0,1.94015,0.00044,405.265,0.034,0.1077,0.0019,140.001,45.000,28673.11705,1.94221,405.791,33.190,45.068,45.000,0.00,0.09,-272.69,-272.75,-9,145,-1,20.3,3.6,-24.4,20.5,3.8,-23.7,5.73,2.39,-18.8,25.9
2015-01-21 01:25:00,0.0,1.93966,0.00038,405.217,0.043,0.1091,0.0020,139.999,45.000,28680.62070,1.94174,405.749,33.189,45.068,45.000,0.00,0.09,-272.69,-272.75,-9,146,-1,20.3,3.6,-24.3,20.5,3.8,-23.7,5.73,2.41,-18.8,25.9
2015-01-21 01:26:00,0.0,1.93990,0.00058,405.206,0.038,0.1099,0.0015,140.001,45.000,28684.43743,1.94202,405.744,33.178,45.068,45.000,0.00,0.09,-272.68,-272.75,-9,147,-1,20.2,3.6,-24.3,20.4,3.8,-23.7,5.73,2.39,-18.8,25.9
2015-01-21 01:27:00,0.0,1.94005,0.00046,405.222,0.030,0.1096,0.0016,140.003,45.000,28690.65558,1.94215,405.757,33.127,45.068,45.000,0.00,0.09,-272.69,-272.75,-10,147,-1,20.2,3.6,-24.3,20.4,3.8,-23.8,5.73,2.40,-18.8,25.9
2015-01-21 01:28:00,0.0,1.93943,0.00043,405.174,0.023,0.1097,0.0017,139.999,45.000,28693.94589,1.94153,405.710,33.119,45.068,45.001,0.00,0.09,-272.69,-272.75,-10,147,-1,20.1,3.6,-24.3,20.3,3.8,-23.7,5.73,2.40,-18.8,25.8
2015-01-21 01:29:00,0.0,1.93924,0.00068,405.155,0.029,0.1109,0.0016,139.999,45.000,28683.50284,1.94141,405.696,33.091,45.068,45.001,0.00,0.09,-272.68,-272.75,-9,146,-1,20.1,3.7,-24.2,20.3,3.8,-23.7,5.73,2.42,-18.8,25.8
2015-01-21 01:30:00,0.0,1.93858,0.00030,405.115,0.016,0.1121,0.0015,139.998,45.000,28669.97912,1.94071,405.662,33.066,45.068,45.001,0.00,0.09,-272.69,-272.75,-9,144,-1,20.1,3.7,-24.1,20.3,3.8,-23.7,5.73,2.40,-18.8,25.8
2015-01-21 01:31:00,0.0,1.93848,0.00057,405.121,0.032,0.1133,0.0018,140.001,45.000,28657.78984,1.94064,405.674,33.064,45.068,45.000,0.00,0.09,-272.69,-272.75,-9,143,-1,20.2,3.7,-23.9,20.3,3.8,-23.7,5.73,2.40,-18.8,25.8
2015-01-21 01:32:00,0.0,1.93872,0.00047,405.122,0.038,0.1132,0.0014,139.998,45.000,28657.33149,1.94089,405.675,33.069,45.068,45.000,0.00,0.09,-272.68,-272.74,-9,143,-1,20.2,3.8,-23.9,20.4,3.8,-23.7,5.73,2.40,-18.8,25.8
2015-01-21 01:33:00,0.0,1.93865,0.00035,405.082,0.027,0.1138,0.0019,139.999,45.000,28667.76334,1.94082,405.638,33.118,45.068,45.000,0.00,0.09,-272.69,-272.74,-9,144,-1,20.3,3.8,-23.8,20.4,3.8,-23.7,5.73,2.39,-18.8,25.8
2015-01-21 01:34:00,0.0,1.93881,0.00057,405.105,0.030,0.1146,0.0019,140.000,45.000,28673.84071,1.94097,405.664,33.125,45.068,45.000,0.00,0.09,-272.69,-272.75,-9,145,-1,20.2,3.8,-23.8,20.4,3.8,-23.6,5.73,2.39,-18.8,25.8
2015-01-21 01:35:00,0.0,1.93899,0.00038,405.095,0.023,0.1135,0.0016,139.998,45.000,28680.25075,1.94120,405.649,33.125,45.067,45.000,0.00,0.09,-272.69,-272.75,-9,146,-1,20.2,3.8,-23.9,20.4,3.8,-23.7,5.73,2.38,-18.8,25.8
2015-01-21 01:36:00,0.0,1.93856,0.00045,405.090,0.036,0.1138,0.0019,139.997,45.000,28683.65480,1.94071,405.647,33.125,45.067,45.000,0.00,0.09,-272.69,-272.74,-9,146,-1,20.2,3.8,-23.9,20.3,3.8,-23.7,5.73,2.38,-18.8,25.8
2015-01-21 01:37:00,0.0,1.93869,0.00046,405.083,0.033,0.1143,0.0020,139.998,45.000,28690.31483,1.94091,405.640,33.125,45.067,45.000,0.00,0.09,-272.70,-272.75,-9,147,-1,20.1,3.8,-23.9,20.3,3.8,-23.7,5.73,2.38,-18.8,25.8
2015-01-21 01:38:00,0.0,1.93811,0.00031,405.108,0.025,0.1152,0.0013,140.000,45.000,28692.59540,1.94030,405.669,33.123,45.067,45.000,0.00,0.09,-272.69,-272.75,-9,147,-1,20.1,3.8,-23.8,20.3,3.8,-23.7,5.73,2.38,-18.7,25.7
2015-01-21 01:39:00,0.0,1.93874,0.00035,405.089,0.032,0.1154,0.0018,140.000,45.000,28694.72160,1.94094,405.653,33.108,45.067,45.000,0.00,0.09,-272.69,-272.74,-9,148,-1,20.0,3.8,-23.8,20.3,3.8,-23.7,5.73,2.38,-18.8,25.7
2015-01-21 01:40:00,0.0,1.93886,0.00034,405.115,0.031,0.1134,0.0018,140.001,45.000,28693.86619,1.94100,405.668,33.073,45.068,45.000,0.00,0.09,-272.69,-272.75,-9,147,-1,20.0,3.8,-24.0,20.2,3.8,-23.7,5.73,2.38,-18.8,25.7
2015-01-21 01:41:00,0.0,1.93925,0.00041,405.144,0.031,0.1127,0.0017,140.000,45.000,28678.76211,1.94144,405.693,33.065,45.068,45.000,0.00,0.09,-272.69,-272.75,-9,146,-1,20.0,3.7,-24.1,20.3,3.8,-23.7,5.73,2.40,-18.8,25.7
2015-01-21 01:42:00,0.0,1.93904,0.00033,405.154,0.030,0.1118,0.0018,139.998,45.000,28666.25287,1.94113,405.701,33.064,45.068,45.000,0.00,0.09,-272.68,-272.74,-9,144,-1,20.1,3.7,-24.2,20.3,3.8,-23.7,5.73,2.38,-18.8,25.7
2015-01-21 01:43:00,0.0,1.93985,0.00036,405.123,0.026,0.1112,0.0018,139.997,45.000,28654.23650,1.94196,405.665,33.063,45.068,45.000,0.00,0.09,-272.68,-272.75,-9,142,-1,20.1,3.7,-24.1,20.3,3.8,-23.6,5.73,2.44,-18.8,25.7
2015-01-21 01:44:00,0.0,1.93941,0.00044,405.082,0.030,0.1123,0.0014,140.000,45.000,28647.58929,1.94159,405.632,33.063,45.068,45.000,0.00,0.09,-272.69,-272.75,-9,142,-1,20.2,3.7,-24.1,20.3,3.8,-23.6,5.73,2.40,-18.7,25.8
2015-01-21 01:45:00,0.0,1.93901,0.00052,405.035,0.031,0.1153,0.0029,140.001,45.000,28649.78632,1.94123,405.598,33.068,45.068,45.000,0.00,0.09,-272.69,-272.75,-9,142,-1,20.2,3.8,-23.9,20.4,3.8,-23.6,5.73,2.38,-18.8,25.8
2015-01-21 01:46:00,0.0,1.93901,0.00042,405.035,0.023,0.1156,0.0014,140.000,45.000,28663.02086,1.94121,405.598,33.090,45.068,45.000,0.00,0.09,-272.68,-272.75,-9,144,-1,20.2,3.8,-23.7,20.4,3.8,-23.6,5.73,2.38,-18.7,25.8